Location: Haulchin
(50.3172°N, 3.4360°E)
Time: 12:47:30
(UTC+00:00)

Cosmos 2228 Rocket - Pass Details

Date: 23 May 2024
Orbit: 616 x 648 km, 82.5° (Epoch: 16 June)

Event Time Altitude Azimuth Distance (km) Brightness Sun altitude
Exits shadow 00:05:22 36° 150° (SSE) 1,000 3.7 -18.9°
Maximum altitude 00:06:52 54° 94° (E) 773 3.5 -18.9°
Drops below altitude 10° 00:11:16 10° 18° (NNE) 2,036 6.9 -18.8°
Sets 00:13:33 0° 14° (NNE) 2,955 8.2 -18.7°
